TimeCDT,TemperatureF,Dew PointF,Humidity,Sea Level PressureIn,VisibilityMPH,Wind Direction,Wind SpeedMPH,Gust SpeedMPH,PrecipitationIn,Events,Conditions,WindDirDegrees,DateUTC
12:53 AM,78.1,71.1,79,29.96,10.0,NNE,8.1,-,N/A,,Clear,30,2013-08-18 05:53:00
1:53 AM,75.9,71.1,85,29.95,10.0,North,3.5,-,N/A,,Clear,360,2013-08-18 06:53:00
2:53 AM,75.0,70.0,84,29.95,10.0,NNE,8.1,-,N/A,,Clear,20,2013-08-18 07:53:00
3:53 AM,75.0,70.0,84,29.95,9.0,NNE,5.8,-,N/A,,Clear,20,2013-08-18 08:53:00
4:08 AM,73.4,69.8,88,29.95,8.0,North,5.8,-,N/A,,Partly Cloudy,10,2013-08-18 09:08:00
4:53 AM,73.9,70.0,87,29.96,8.0,NNE,6.9,-,N/A,,Clear,30,2013-08-18 09:53:00
5:05 AM,75.2,69.8,83,29.96,9.0,NNE,6.9,-,N/A,,Partly Cloudy,30,2013-08-18 10:05:00
5:53 AM,73.9,70.0,87,29.96,10.0,NNE,8.1,-,N/A,,Partly Cloudy,20,2013-08-18 10:53:00
6:53 AM,73.0,69.1,87,29.98,6.0,North,5.8,-,N/A,,Clear,350,2013-08-18 11:53:00
7:53 AM,75.0,70.0,84,29.99,9.0,North,6.9,-,N/A,,Clear,10,2013-08-18 12:53:00
8:53 AM,79.0,70.0,74,29.99,10.0,NNE,11.5,-,N/A,,Clear,30,2013-08-18 13:53:00
9:53 AM,81.0,70.0,69,30.01,10.0,NNE,12.7,-,N/A,,Clear,30,2013-08-18 14:53:00
10:34 AM,80.6,69.8,70,30.02,10.0,NNE,12.7,-,N/A,,Mostly Cloudy,30,2013-08-18 15:34:00
10:49 AM,80.6,69.8,70,30.03,10.0,NE,13.8,-,N/A,,Scattered Clouds,40,2013-08-18 15:49:00
10:53 AM,81.0,69.1,67,30.03,10.0,NE,13.8,-,N/A,,Scattered Clouds,40,2013-08-18 15:53:00
11:53 AM,84.9,70.0,61,30.02,10.0,NE,12.7,-,N/A,,Clear,40,2013-08-18 16:53:00
12:53 PM,86.0,70.0,59,30.02,10.0,NE,12.7,17.3,N/A,,Clear,40,2013-08-18 17:53:00
1:53 PM,88.0,70.0,55,30.01,10.0,NNE,11.5,-,N/A,,Clear,20,2013-08-18 18:53:00
2:53 PM,90.0,70.0,52,30.00,10.0,ENE,8.1,-,N/A,,Clear,60,2013-08-18 19:53:00
3:53 PM,89.1,70.0,53,29.99,10.0,NE,6.9,-,N/A,,Partly Cloudy,40,2013-08-18 20:53:00
4:53 PM,90.0,70.0,52,29.99,10.0,NE,5.8,-,N/A,,Mostly Cloudy,40,2013-08-18 21:53:00
5:53 PM,90.0,69.1,50,29.98,10.0,North,3.5,-,N/A,,Clear,360,2013-08-18 22:53:00
6:53 PM,89.1,69.1,52,29.99,10.0,Calm,Calm,-,N/A,,Partly Cloudy,0,2013-08-18 23:53:00
7:53 PM,84.0,72.0,67,29.99,10.0,ESE,3.5,-,N/A,,Scattered Clouds,120,2013-08-19 00:53:00
8:53 PM,81.0,73.0,77,29.99,10.0,Calm,Calm,-,N/A,,Clear,0,2013-08-19 01:53:00
9:53 PM,80.1,72.0,76,29.99,10.0,Variable,3.5,-,N/A,,Clear,0,2013-08-19 02:53:00
10:53 PM,79.0,72.0,79,30.00,10.0,North,3.5,-,N/A,,Clear,10,2013-08-19 03:53:00
11:53 PM,79.0,72.0,79,30.00,10.0,NNE,5.8,-,N/A,,Clear,30,2013-08-19 04:53:00